Hourly Weather Lebu

Today, 27 November, Friday

Time Temperature Precipitation Wind Pressure Humidity
00:00 +7°C° 0 mm 6 mps 747 mmHg 78%
01:00 +7°C° 0 mm 5 mps 747 mmHg 83%
02:00 +7°C° 0 mm 5 mps 747 mmHg 84%
03:00 +6°C° 0 mm 5 mps 747 mmHg 85%
04:00 +6°C° 0 mm 5 mps 747 mmHg 86%
05:00 +8°C° 0 mm 5 mps 747 mmHg 79%
06:00 +11°C° 0 mm 4 mps 747 mmHg 73%
07:00 +12°C° 0 mm 4 mps 748 mmHg 66%
08:00 +14°C° 0 mm 4 mps 747 mmHg 62%
09:00 +17°C° 0 mm 4 mps 747 mmHg 58%
10:00 +18°C° 0 mm 4 mps 747 mmHg 54%
11:00 +19°C° 0 mm 4 mps 747 mmHg 52%
12:00 +19°C° 0 mm 4 mps 747 mmHg 50%
13:00 +20°C° 0 mm 4 mps 747 mmHg 49%
14:00 +19°C° 0 mm 4 mps 747 mmHg 54%
15:00 +18°C° 0 mm 4 mps 747 mmHg 58%
16:00 +17°C° 0 mm 4 mps 747 mmHg 63%
17:00 +14°C° 0 mm 3 mps 747 mmHg 71%
18:00 +13°C° 0 mm 3 mps 748 mmHg 78%
19:00 +12°C° 0 mm 2 mps 748 mmHg 86%
20:00 +10°C° 0 mm 2 mps 748 mmHg 88%
21:00 +10°C° 0 mm 2 mps 748 mmHg 91%
22:00 +10°C° 0 mm 1 mps 748 mmHg 94%
23:00 +10°C° 0 mm 1 mps 748 mmHg 93%

Tomorrow, 28 November, Saturday

Time Temperature Precipitation Wind Pressure Humidity
00:00 +9°C° 0 mm 1 mps 748 mmHg 93%
01:00 +9°C° 0 mm 1 mps 748 mmHg 93%
02:00 +9°C° 0 mm 1 mps 748 mmHg 93%
03:00 +9°C° 0 mm 1 mps 748 mmHg 93%
04:00 +9°C° 0 mm 1 mps 748 mmHg 93%
05:00 +11°C° 0 mm 1 mps 748 mmHg 86%
06:00 +13°C° 0 mm 1 mps 749 mmHg 79%
07:00 +15°C° 0 mm 1 mps 749 mmHg 72%
08:00 +18°C° 0 mm 1 mps 749 mmHg 66%
09:00 +18°C° 0 mm 2 mps 749 mmHg 61%
10:00 +19°C° 0 mm 3 mps 749 mmHg 55%
11:00 +19°C° 0 mm 3 mps 749 mmHg 57%
12:00 +19°C° 0 mm 3 mps 749 mmHg 59%
13:00 +19°C° 0 mm 3 mps 750 mmHg 61%
14:00 +18°C° 0 mm 3 mps 750 mmHg 68%
15:00 +18°C° 0 mm 3 mps 750 mmHg 74%
16:00 +17°C° 0 mm 3 mps 750 mmHg 81%
17:00 +16°C° 0 mm 3 mps 750 mmHg 85%
18:00 +14°C° 0 mm 4 mps 750 mmHg 90%
19:00 +13°C° 0 mm 4 mps 751 mmHg 95%
20:00 +13°C° 0 mm 5 mps 751 mmHg 93%
21:00 +12°C° 0 mm 5 mps 751 mmHg 92%
22:00 +11°C° 0 mm 6 mps 752 mmHg 90%
23:00 +10°C° 0 mm 6 mps 751 mmHg 90%

Day after tomorrow, 29 November, Sunday

Time Temperature Precipitation Wind Pressure Humidity
00:00 +10°C° 0 mm 6 mps 751 mmHg 89%
01:00 +9°C° 0 mm 6 mps 751 mmHg 89%
02:00 +9°C° 0 mm 7 mps 751 mmHg 88%
03:00 +8°C° 0 mm 7 mps 751 mmHg 87%
04:00 +8°C° 0 mm 7 mps 751 mmHg 86%
05:00 +9°C° 0 mm 7 mps 751 mmHg 80%
06:00 +10°C° 0 mm 7 mps 752 mmHg 74%
07:00 +11°C° 0 mm 7 mps 752 mmHg 68%
08:00 +13°C° 0 mm 8 mps 752 mmHg 60%
09:00 +15°C° 0 mm 8 mps 752 mmHg 51%
10:00 +17°C° 0 mm 8 mps 751 mmHg 42%
11:00 +17°C° 0 mm 9 mps 751 mmHg 43%
12:00 +16°C° 0 mm 9 mps 751 mmHg 44%
13:00 +16°C° 0 mm 10 mps 751 mmHg 45%
14:00 +16°C° 0 mm 10 mps 751 mmHg 47%
15:00 +14°C° 0 mm 10 mps 750 mmHg 50%
16:00 +13°C° 0 mm 10 mps 750 mmHg 53%
17:00 +12°C° 0 mm 10 mps 750 mmHg 59%
18:00 +11°C° 0 mm 10 mps 750 mmHg 65%
19:00 +9°C° 0 mm 10 mps 751 mmHg 71%
20:00 +8°C° 0 mm 10 mps 751 mmHg 72%
21:00 +8°C° 0 mm 9 mps 751 mmHg 72%
22:00 +7°C° 0 mm 9 mps 751 mmHg 72%
23:00 +7°C° 0 mm 9 mps 751 mmHg 74%

30 November, Monday

Time Temperature Precipitation Wind Pressure Humidity
00:00 +7°C° 0 mm 9 mps 750 mmHg 76%
01:00 +6°C° 0 mm 8 mps 750 mmHg 79%
02:00 +6°C° 0 mm 8 mps 750 mmHg 79%
03:00 +6°C° 0 mm 8 mps 750 mmHg 79%
04:00 +6°C° 0 mm 8 mps 749 mmHg 79%
05:00 +7°C° 0 mm 8 mps 749 mmHg 71%
06:00 +10°C° 0 mm 8 mps 749 mmHg 63%
07:00 +12°C° 0 mm 8 mps 749 mmHg 55%
08:00 +13°C° 0 mm 8 mps 750 mmHg 52%
09:00 +15°C° 0 mm 8 mps 750 mmHg 48%
10:00 +17°C° 0 mm 9 mps 750 mmHg 45%
11:00 +17°C° 0 mm 9 mps 749 mmHg 47%
12:00 +17°C° 0 mm 9 mps 749 mmHg 48%
13:00 +17°C° 0 mm 10 mps 749 mmHg 50%
14:00 +16°C° 0 mm 10 mps 749 mmHg 53%
15:00 +14°C° 0 mm 10 mps 749 mmHg 57%
16:00 +13°C° 0 mm 9 mps 748 mmHg 61%
17:00 +12°C° 0 mm 9 mps 749 mmHg 66%
18:00 +11°C° 0 mm 9 mps 749 mmHg 72%
19:00 +8°C° 0 mm 9 mps 749 mmHg 78%
20:00 +8°C° 0 mm 9 mps 749 mmHg 79%
21:00 +9°C° 0 mm 8 mps 749 mmHg 80%
22:00 +7°C° 0 mm 8 mps 750 mmHg 81%
23:00 +7°C° 0 mm 8 mps 749 mmHg 81%

1 December, Tuesday

Time Temperature Precipitation Wind Pressure Humidity
00:00 +7°C° 0 mm 8 mps 749 mmHg 82%
01:00 +6°C° 0 mm 8 mps 749 mmHg 83%
02:00 +6°C° 0 mm 8 mps 749 mmHg 83%
03:00 +6°C° 0 mm 8 mps 748 mmHg 83%
04:00 +6°C° 0 mm 8 mps 748 mmHg 83%
05:00 +7°C° 0 mm 8 mps 749 mmHg 77%
06:00 +10°C° 0 mm 8 mps 749 mmHg 72%
07:00 +12°C° 0 mm 8 mps 749 mmHg 66%
08:00 +13°C° 0 mm 8 mps 749 mmHg 60%
09:00 +16°C° 0 mm 9 mps 749 mmHg 55%
10:00 +17°C° 0 mm 9 mps 748 mmHg 49%
11:00 +17°C° 0 mm 9 mps 748 mmHg 49%
12:00 +17°C° 0 mm 9 mps 748 mmHg 49%
13:00 +18°C° 0 mm 10 mps 748 mmHg 49%
14:00 +17°C° 0 mm 10 mps 748 mmHg 52%
15:00 +16°C° 0 mm 9 mps 747 mmHg 54%
16:00 +16°C° 0 mm 9 mps 747 mmHg 57%
17:00 +13°C° 0 mm 9 mps 747 mmHg 63%
18:00 +12°C° 0 mm 9 mps 747 mmHg 69%
19:00 +11°C° 0 mm 9 mps 747 mmHg 76%
20:00 +10°C° 0 mm 9 mps 747 mmHg 76%
21:00 +10°C° 0 mm 9 mps 747 mmHg 76%
22:00 +10°C° 0 mm 8 mps 747 mmHg 76%
23:00 +10°C° 0 mm 8 mps 747 mmHg 78%

2 December, Wednesday

Time Temperature Precipitation Wind Pressure Humidity
00:00 +10°C° 0 mm 8 mps 747 mmHg 80%
01:00 +9°C° 0 mm 8 mps 747 mmHg 82%
02:00 +9°C° 0 mm 8 mps 747 mmHg 84%
03:00 +9°C° 0 mm 8 mps 747 mmHg 87%
04:00 +9°C° 0 mm 7 mps 747 mmHg 89%
05:00 +11°C° 0 mm 7 mps 747 mmHg 83%
06:00 +12°C° 0 mm 7 mps 747 mmHg 76%
07:00 +15°C° 0 mm 7 mps 748 mmHg 70%
08:00 +16°C° 0 mm 7 mps 748 mmHg 65%
09:00 +17°C° 0 mm 8 mps 748 mmHg 61%
10:00 +20°C° 0 mm 8 mps 748 mmHg 56%
11:00 +20°C° 0 mm 8 mps 748 mmHg 57%
12:00 +18°C° 0 mm 8 mps 748 mmHg 59%
13:00 +18°C° 0 mm 8 mps 748 mmHg 60%
14:00 +18°C° 0 mm 8 mps 748 mmHg 62%
15:00 +17°C° 0 mm 7 mps 748 mmHg 64%
16:00 +16°C° 0 mm 7 mps 748 mmHg 66%
17:00 +15°C° 0 mm 7 mps 748 mmHg 73%
18:00 +14°C° 0 mm 7 mps 748 mmHg 79%
19:00 +11°C° 0 mm 7 mps 748 mmHg 86%
20:00 +11°C° 0 mm 7 mps 749 mmHg 86%
21:00 +11°C° 0 mm 7 mps 749 mmHg 87%
22:00 +11°C° 0 mm 7 mps 749 mmHg 87%
23:00 +10°C° 0 mm 7 mps 749 mmHg 87%
Show more

We Need Your Consent

Meteoprog and our Service Providers may store and access personal data such as cookies, device identifiers or other similar technologies on your device and process such data to personalise content and ads, as well as provide social media features and to analyse the traffic.

  • Store and/or access information on your device

    Cookies, device identifiers or other information can be stored or accessed on your device for the purposes indicated above.

  • Personalised ads and content, ad and content measurement, audience insights, and products development

    Ads and content can be personalised based on a profile. More data can be added to better personalise ads and content. Ad and content performance can be measured. Insights about the audience who saw the ads and content can be derived. Such data can be used to develop or improve user’s experience, systems and software.

By clicking ‘I Agree’ you will allow the use of indicated cookies, device identifiers, web beacons or other similar technologies. Your settings can be changed in the browser on your device.

For certain purposes, legitimate interests may be relied on, rather than consent. You can read more about this in our Privacy and Cookie Policy.